Flag for Costa Rica Weather past 2 weeks in Alajuela, Costa Rica

Now
79 °F

Partly sunny.


Feels Like: 80 °F
Forecast: 69 / 85 °F
Wind: 14 mph from East

Location: Juan Santamaria


UV Index: 10 (Very high)

Visibility: N/A


Pressure: 30.05 "Hg

Humidity: 51%

Dew point: 59 °F

Location of AlajuelaLocation

Historic Weather in Alajuela

°F

Alajuela temperature yesterday

Maximum temperature yesterday: 86 °F (at 2:00 PM)
Minimum temperature yesterday: 70 °F (at 12:00 AM)
Average temperature yesterday: 75 °F

Past Weeks' High & Low Weather Summary

 TemperatureHumidityPressure
High90 °F (Apr 8, 1:00 PM)88% (Apr 7, 10:00 PM)30.08 "Hg (Apr 7, 10:00 PM)
Low66 °F (Apr 8, 3:00 AM)31% (Apr 17, 2:00 PM)29.89 "Hg (Apr 13, 4:00 PM)
Average75 °F59%29.98 "Hg
* Reported Apr 5 8:12 AM — Apr 20 8:00 AM, Alajuela, Weather by CustomWeather, © 2014

Note: Actual official high and low records may vary slightly from our data, if they occured in-between our weather recording intervals... More about our weather records

Advertising

Historic Weather Conditions — Data for Previous 24 hours

 ConditionsComfort  
Time TempWeatherWind HumidityBarometerVisibility
8:00 AM
Apr 20
77 °FPassing clouds.12 mph57%30.04 "HgN/A
7:00 AM73 °FScattered clouds.13 mph61%30.04 "HgN/A
6:00 AM72 °FPartly sunny.10 mph69%30.02 "HgN/A
5:00 AM70 °FClear.8 mph69%30.00 "Hg10 mi
4:00 AM70 °FClear.8 mph69%29.99 "Hg10 mi
3:00 AM70 °FClear.12 mph73%29.98 "Hg10 mi
2:00 AM70 °FClear.8 mph73%29.98 "Hg10 mi
1:00 AM70 °FClear.12 mph73%29.98 "Hg10 mi
12:00 AM70 °FClear.13 mph73%30.00 "Hg10 mi
11:00 PM
Apr 19
70 °FPassing clouds.10 mph73%30.01 "HgN/A
10:00 PM70 °FPassing clouds.13 mph69%30.01 "HgN/A
9:00 PM72 °FPassing clouds.10 mph69%30.01 "HgN/A
8:00 PM72 °FPassing clouds.12 mph69%30.00 "HgN/A
7:00 PM73 °FPassing clouds.12 mph65%29.99 "HgN/A
6:00 PM75 °FPassing clouds.12 mph57%29.97 "HgN/A
5:00 PM79 °FScattered clouds.12 mph51%29.95 "HgN/A
4:00 PM82 °FPassing clouds.12 mph42%29.93 "HgN/A
3:00 PM86 °FPassing clouds.15 mph35%29.92 "HgN/A
2:00 PM86 °FPassing clouds.12 mph35%29.93 "HgN/A
1:00 PM84 °FPassing clouds.12 mph37%29.96 "HgN/A
12:00 PM82 °FPassing clouds.13 mph40%29.99 "HgN/A
11:00 AM82 °FPassing clouds.12 mph40%30.01 "HgN/A
10:00 AM81 °FPassing clouds.15 mph42%30.02 "HgN/A
9:00 AM77 °FPassing clouds.12 mph47%30.02 "HgN/A
Weather by CustomWeather, © 2014

See weather overview